| time (UTC) | temp F | wind direction | speed MPH | gust MPH | rain 1hr in | rain 24hr in | rain mn in | humidity % | barometer mb |
| 20260902074707 | 76 | 289 | 2.0 | 6.0 | 0.00 | 0.00 | 0.00 | 60 | 1022.1 |
| 20260902074210 | 76 | 307 | 2.0 | 8.0 | 0.00 | 0.00 | 0.00 | 61 | 1022.1 |
| 20260902073214 | 75 | 285 | 2.0 | 8.0 | 0.00 | 0.00 | 0.00 | 62 | 1022.1 |
| 20260902072713 | 75 | 264 | 1.0 | 3.0 | 0.00 | 0.00 | 0.00 | 63 | 1022.1 |
| 20260902072216 | 74 | 78 | 0.0 | 3.0 | 0.00 | 0.00 | 0.00 | 64 | 1022.1 |
| 20260902071714 | 73 | 125 | 0.0 | 0.0 | 0.00 | 0.00 | 0.00 | 65 | 1022.0 |
| 20260902071216 | 73 | 0 | 0.0 | 0.0 | 0.00 | 0.00 | 0.00 | 66 | 1022.1 |
| 20260902070716 | 72 | 0 | 0.0 | 0.0 | 0.00 | 0.00 | 0.00 | 68 | 1022.0 |
| 20260902070211 | 71 | 0 | 0.0 | 2.0 | 0.00 | 0.00 | 0.00 | 69 | 1022.2 |
| 20260902065214 | 70 | 0 | 0.0 | 2.0 | 0.00 | 0.00 | 0.00 | 68 | 1022.0 |
| 20260902064714 | 70 | 106 | 0.0 | 0.0 | 0.00 | 0.00 | 0.00 | 69 | 1021.9 |
| 20260902064209 | 69 | 0 | 0.0 | 3.0 | 0.00 | 0.00 | 0.00 | 71 | 1021.9 |
| 20260902063708 | 68 | 0 | 0.0 | 3.0 | 0.00 | 0.00 | 0.00 | 71 | 1021.9 |
| 20260902063213 | 68 | 0 | 0.0 | 3.0 | 0.00 | 0.00 | 0.00 | 72 | 1021.9 |
| 20260902062710 | 67 | 157 | 0.0 | 2.0 | 0.00 | 0.00 | 0.00 | 73 | 1021.9 |
| 20260902061715 | 66 | 195 | 0.0 | 4.0 | 0.00 | 0.00 | 0.00 | 74 | 1021.9 |
| 20260902061219 | 66 | 189 | 0.0 | 4.0 | 0.00 | 0.00 | 0.00 | 74 | 1021.9 |
| 20260902060715 | 66 | 198 | 1.0 | 3.0 | 0.00 | 0.00 | 0.00 | 75 | 1021.8 |
| 20260902060211 | 66 | 233 | 0.0 | 3.0 | 0.00 | 0.00 | 0.00 | 75 | 1021.8 |
| 20260902055712 | 66 | 227 | 1.0 | 4.0 | 0.00 | 0.00 | 0.00 | 75 | 1021.8 |
| 20260902055218 | 65 | 202 | 1.0 | 5.0 | 0.00 | 0.00 | 0.00 | 75 | 1021.6 |
| 20260902054213 | 65 | 201 | 2.0 | 5.0 | 0.00 | 0.00 | 0.00 | 75 | 1021.5 |
| 20260902053717 | 65 | 195 | 3.0 | 5.0 | 0.00 | 0.00 | 0.00 | 75 | 1021.3 |
| 20260902053212 | 65 | 189 | 2.0 | 6.0 | 0.00 | 0.00 | 0.00 | 75 | 1021.3 |
| 20260902052717 | 65 | 223 | 2.0 | 6.0 | 0.00 | 0.00 | 0.00 | 75 | 1021.2 |
| 20260902052216 | 65 | 212 | 3.0 | 6.0 | 0.00 | 0.00 | 0.00 | 75 | 1021.2 |
| 20260902051711 | 65 | 201 | 2.0 | 5.0 | 0.00 | 0.00 | 0.00 | 75 | 1021.2 |
| 20260902051215 | 65 | 213 | 2.0 | 5.0 | 0.00 | 0.00 | 0.00 | 75 | 1021.2 |
| 20260902050715 | 65 | 223 | 2.0 | 4.0 | 0.00 | 0.00 | 0.00 | 75 | 1021.1 |
| 20260902045710 | 65 | 234 | 1.0 | 2.0 | 0.00 | 0.00 | 0.00 | 74 | 1021.1 |
| 20260902045215 | 65 | 191 | 0.0 | 3.0 | 0.00 | 0.00 | 0.00 | 74 | 1021.1 |
| 20260902044707 | 66 | 199 | 1.0 | 3.0 | 0.00 | 0.00 | 0.00 | 74 | 1021.1 |
| 20260902043717 | 66 | 237 | 2.0 | 3.0 | 0.00 | 0.00 | 0.00 | 74 | 1020.9 |
| 20260902043207 | 66 | 192 | 1.0 | 2.0 | 0.00 | 0.00 | 0.00 | 74 | 1021.0 |
| 20260902042709 | 66 | 225 | 1.0 | 3.0 | 0.00 | 0.00 | 0.00 | 73 | 1021.1 |
| 20260902042219 | 66 | 151 | 1.0 | 3.0 | 0.00 | 0.00 | 0.00 | 73 | 1021.0 |
| 20260902041713 | 66 | 182 | 0.0 | 3.0 | 0.00 | 0.00 | 0.00 | 73 | 1021.0 |
| 20260902040710 | 66 | 177 | 1.0 | 3.0 | 0.00 | 0.00 | 0.00 | 72 | 1021.1 |
| 20260902040213 | 66 | 217 | 1.0 | 3.0 | 0.00 | 0.00 | 0.00 | 72 | 1021.1 |
| 20260902035715 | 67 | 196 | 1.0 | 3.0 | 0.00 | 0.00 | 0.00 | 72 | 1021.0 |
| 20260902035213 | 67 | 0 | 0.0 | 3.0 | 0.00 | 0.00 | 0.00 | 72 | 1021.0 |
| 20260902034708 | 67 | 205 | 1.0 | 3.0 | 0.00 | 0.00 | 0.00 | 72 | 1021.0 |
| 20260902034217 | 67 | 202 | 1.0 | 3.0 | 0.00 | 0.00 | 0.00 | 71 | 1021.0 |
| 20260902033718 | 67 | 217 | 1.0 | 4.0 | 0.00 | 0.00 | 0.00 | 71 | 1020.9 |
| 20260902032711 | 67 | 239 | 2.0 | 4.0 | 0.00 | 0.00 | 0.00 | 71 | 1021.0 |
| 20260902032206 | 67 | 225 | 2.0 | 4.0 | 0.00 | 0.00 | 0.00 | 70 | 1021.0 |
| 20260902031716 | 67 | 201 | 2.0 | 6.0 | 0.00 | 0.00 | 0.00 | 70 | 1021.0 |
| 20260902031209 | 67 | 215 | 2.0 | 6.0 | 0.00 | 0.00 | 0.00 | 70 | 1020.9 |
| 20260902030717 | 67 | 177 | 1.0 | 6.0 | 0.00 | 0.00 | 0.00 | 71 | 1020.9 |
| 20260902030215 | 67 | 202 | 2.0 | 5.0 | 0.00 | 0.00 | 0.00 | 71 | 1020.9 |
| 20260902024713 | 67 | 198 | 1.0 | 3.0 | 0.00 | 0.00 | 0.00 | 72 | 1020.9 |
| 20260902024210 | 67 | 188 | 1.0 | 3.0 | 0.00 | 0.00 | 0.00 | 72 | 1020.9 |
| 20260902023712 | 67 | 199 | 0.0 | 0.0 | 0.00 | 0.00 | 0.00 | 72 | 1020.9 |
| 20260902023208 | 67 | 0 | 0.0 | 0.0 | 0.00 | 0.00 | 0.00 | 72 | 1021.0 |
| 20260902022713 | 67 | 0 | 0.0 | 0.0 | 0.00 | 0.00 | 0.00 | 71 | 1021.0 |
| 20260902021707 | 68 | 0 | 0.0 | 0.0 | 0.00 | 0.00 | 0.00 | 70 | 1020.9 |
| 20260902020730 | 68 | 0 | 0.0 | 0.0 | 0.00 | 0.00 | 0.00 | 69 | 1020.9 |
| 20260902015719 | 68 | 0 | 0.0 | 0.0 | 0.00 | 0.00 | 0.00 | 68 | 1020.9 |
| 20260902015205 | 69 | 0 | 0.0 | 0.0 | 0.00 | 0.00 | 0.00 | 68 | 1020.9 |
| 20260902014720 | 69 | 0 | 0.0 | 0.0 | 0.00 | 0.00 | 0.00 | 67 | 1020.9 |
| 20260902014217 | 69 | 0 | 0.0 | 0.0 | 0.00 | 0.00 | 0.00 | 67 | 1020.9 |
| 20260902013718 | 69 | 0 | 0.0 | 0.0 | 0.00 | 0.00 | 0.00 | 67 | 1020.8 |
| 20260902013212 | 69 | 0 | 0.0 | 0.0 | 0.00 | 0.00 | 0.00 | 67 | 1020.9 |
| 20260902012708 | 69 | 0 | 0.0 | 0.0 | 0.00 | 0.00 | 0.00 | 67 | 1020.9 |
| 20260902012208 | 69 | 0 | 0.0 | 1.0 | 0.00 | 0.00 | 0.00 | 67 | 1020.9 |
| 20260902011709 | 69 | 0 | 0.0 | 1.0 | 0.00 | 0.00 | 0.00 | 67 | 1020.8 |
| 20260902011207 | 69 | 0 | 0.0 | 1.0 | 0.00 | 0.00 | 0.00 | 67 | 1020.8 |
| 20260902010742 | 69 | 144 | 0.0 | 0.0 | 0.00 | 0.00 | 0.00 | 67 | 1020.8 |
| 20260902005717 | 70 | 0 | 0.0 | 0.0 | 0.00 | 0.00 | 0.00 | 66 | 1020.7 |
| 20260902005217 | 70 | 0 | 0.0 | 0.0 | 0.00 | 0.00 | 0.00 | 65 | 1020.7 |
| 20260902004714 | 70 | 0 | 0.0 | 2.0 | 0.00 | 0.00 | 0.00 | 65 | 1020.7 |
| 20260902004217 | 70 | 0 | 0.0 | 2.0 | 0.00 | 0.00 | 0.00 | 64 | 1020.6 |
| 20260902003706 | 71 | 0 | 0.0 | 2.0 | 0.00 | 0.00 | 0.00 | 64 | 1020.7 |
| 20260902003211 | 71 | 175 | 0.0 | 0.0 | 0.00 | 0.00 | 0.00 | 63 | 1020.6 |
| 20260902002217 | 71 | 0 | 0.0 | 1.0 | 0.00 | 0.00 | 0.00 | 63 | 1020.7 |
| 20260902001731 | 71 | 0 | 0.0 | 1.0 | 0.00 | 0.00 | 0.00 | 63 | 1020.6 |
| 20260902001239 | 71 | 0 | 0.0 | 1.0 | 0.00 | 0.00 | 0.00 | 63 | 1020.6 |
| 20260902000205 | 72 | 0 | 0.0 | 0.0 | 0.00 | 0.00 | 0.00 | 63 | 1020.6 |
| 20260901235212 | 73 | 0 | 0.0 | 0.0 | 0.00 | 0.00 | 0.00 | 62 | 1020.6 |
| 20260901234719 | 73 | 0 | 0.0 | 0.0 | 0.00 | 0.00 | 0.00 | 61 | 1020.5 |
| 20260901234210 | 73 | 0 | 0.0 | 0.0 | 0.00 | 0.00 | 0.00 | 61 | 1020.4 |
| 20260901233216 | 74 | 0 | 0.0 | 1.0 | 0.00 | 0.00 | 0.00 | 60 | 1020.5 |
| 20260901232713 | 74 | 0 | 0.0 | 2.0 | 0.00 | 0.00 | 0.00 | 59 | 1020.4 |
| 20260901232209 | 74 | 165 | 0.0 | 2.0 | 0.00 | 0.00 | 0.00 | 59 | 1020.4 |
| 20260901231216 | 75 | 244 | 0.0 | 4.0 | 0.00 | 0.00 | 0.00 | 58 | 1020.6 |
| 20260901230740 | 75 | 203 | 0.0 | 6.0 | 0.00 | 0.00 | 0.00 | 57 | 1020.6 |
| 20260901230211 | 75 | 264 | 1.0 | 6.0 | 0.00 | 0.00 | 0.00 | 57 | 1020.6 |
| 20260901225716 | 75 | 216 | 1.0 | 6.0 | 0.00 | 0.00 | 0.00 | 56 | 1020.6 |
| 20260901225205 | 76 | 223 | 2.0 | 5.0 | 0.00 | 0.00 | 0.00 | 56 | 1020.5 |
| 20260901224713 | 76 | 213 | 1.0 | 3.0 | 0.00 | 0.00 | 0.00 | 56 | 1020.5 |
| 20260901223715 | 76 | 0 | 0.0 | 6.0 | 0.00 | 0.00 | 0.00 | 56 | 1020.4 |
| 20260901222237 | 76 | 254 | 3.0 | 4.0 | 0.00 | 0.00 | 0.00 | 55 | 1020.4 |
| 20260901221712 | 76 | 206 | 1.0 | 6.0 | 0.00 | 0.00 | 0.00 | 55 | 1020.4 |
| 20260901221206 | 76 | 217 | 1.0 | 6.0 | 0.00 | 0.00 | 0.00 | 55 | 1020.4 |
| 20260901220706 | 76 | 227 | 0.0 | 6.0 | 0.00 | 0.00 | 0.00 | 55 | 1020.3 |
| 20260901220212 | 76 | 233 | 1.0 | 6.0 | 0.00 | 0.00 | 0.00 | 54 | 1020.4 |
| 20260901215711 | 77 | 241 | 2.0 | 6.0 | 0.00 | 0.00 | 0.00 | 54 | 1020.4 |
| 20260901215218 | 77 | 227 | 2.0 | 4.0 | 0.00 | 0.00 | 0.00 | 54 | 1020.3 |
| 20260901214717 | 77 | 226 | 0.0 | 4.0 | 0.00 | 0.00 | 0.00 | 54 | 1020.4 |
| 20260901214214 | 77 | 230 | 0.0 | 4.0 | 0.00 | 0.00 | 0.00 | 54 | 1020.4 |
| 20260901213714 | 77 | 232 | 1.0 | 4.0 | 0.00 | 0.00 | 0.00 | 53 | 1020.4 |
| 20260901213216 | 77 | 241 | 0.0 | 4.0 | 0.00 | 0.00 | 0.00 | 53 | 1020.4 |
| 20260901212704 | 77 | 237 | 1.0 | 6.0 | 0.00 | 0.00 | 0.00 | 53 | 1020.4 |
| 20260901212218 | 78 | 248 | 1.0 | 6.0 | 0.00 | 0.00 | 0.00 | 52 | 1020.3 |
| 20260901211709 | 78 | 232 | 1.0 | 6.0 | 0.00 | 0.00 | 0.00 | 52 | 1020.3 |
| 20260901211212 | 78 | 239 | 2.0 | 6.0 | 0.00 | 0.00 | 0.00 | 52 | 1020.2 |
| 20260901210716 | 78 | 215 | 1.0 | 6.0 | 0.00 | 0.00 | 0.00 | 51 | 1020.1 |
| 20260901210206 | 78 | 250 | 2.0 | 6.0 | 0.00 | 0.00 | 0.00 | 51 | 1020.2 |
| 20260901205710 | 78 | 223 | 2.0 | 6.0 | 0.00 | 0.00 | 0.00 | 50 | 1020.2 |
| 20260901205214 | 79 | 268 | 3.0 | 7.0 | 0.00 | 0.00 | 0.00 | 50 | 1020.1 |
| 20260901204718 | 79 | 258 | 1.0 | 9.0 | 0.00 | 0.00 | 0.00 | 49 | 1020.0 |
| 20260901204213 | 79 | 257 | 2.0 | 9.0 | 0.00 | 0.00 | 0.00 | 49 | 1020.1 |
| 20260901203707 | 79 | 241 | 2.0 | 9.0 | 0.00 | 0.00 | 0.00 | 48 | 1020.0 |
| 20260901202718 | 79 | 243 | 1.0 | 6.0 | 0.00 | 0.00 | 0.00 | 48 | 1019.8 |
| 20260901201708 | 78 | 250 | 0.0 | 0.0 | 0.00 | 0.00 | 0.00 | 48 | 1019.8 |
| 20260901195205 | 78 | 0 | 0.0 | 0.0 | 0.00 | 0.00 | 0.00 | 44 | 1019.5 |
| 20260901194730 | 79 | 0 | 0.0 | 0.0 | 0.00 | 0.00 | 0.00 | 44 | 1019.5 |
| 20260901194213 | 80 | 0 | 0.0 | 0.0 | 0.00 | 0.00 | 0.00 | 43 | 1019.4 |
| 20260901193712 | 80 | 0 | 0.0 | 0.0 | 0.00 | 0.00 | 0.00 | 42 | 1019.3 |
| 20260901193211 | 81 | 0 | 0.0 | 2.0 | 0.00 | 0.00 | 0.00 | 41 | 1019.3 |
| 20260901192712 | 81 | 0 | 0.0 | 6.0 | 0.00 | 0.00 | 0.00 | 41 | 1019.1 |
| 20260901192212 | 81 | 0 | 0.0 | 6.0 | 0.00 | 0.00 | 0.00 | 40 | 1019.0 |
| 20260901191712 | 81 | 213 | 0.0 | 6.0 | 0.00 | 0.00 | 0.00 | 40 | 1018.9 |
| 20260901191217 | 82 | 220 | 1.0 | 6.0 | 0.00 | 0.00 | 0.00 | 39 | 1018.7 |
| 20260901190714 | 82 | 234 | 2.0 | 8.0 | 0.00 | 0.00 | 0.00 | 39 | 1018.7 |
| 20260901190217 | 82 | 206 | 0.0 | 8.0 | 0.00 | 0.00 | 0.00 | 38 | 1018.6 |
| 20260901185709 | 83 | 246 | 1.0 | 10.0 | 0.00 | 0.00 | 0.00 | 38 | 1018.5 |
| 20260901185218 | 83 | 267 | 3.0 | 10.0 | 0.00 | 0.00 | 0.00 | 37 | 1018.4 |
| 20260901184717 | 83 | 288 | 2.0 | 10.0 | 0.00 | 0.00 | 0.00 | 37 | 1018.4 |
| 20260901184208 | 83 | 267 | 3.0 | 9.0 | 0.00 | 0.00 | 0.00 | 36 | 1018.2 |
| 20260901183706 | 84 | 289 | 3.0 | 9.0 | 0.00 | 0.00 | 0.00 | 36 | 1018.2 |
| 20260901183206 | 84 | 281 | 3.0 | 9.0 | 0.00 | 0.00 | 0.00 | 36 | 1017.9 |
| 20260901182214 | 84 | 251 | 3.0 | 10.0 | 0.00 | 0.00 | 0.00 | 35 | 1017.9 |
| 20260901181705 | 85 | 292 | 4.0 | 11.0 | 0.00 | 0.00 | 0.00 | 34 | 1018.0 |
| 20260901181211 | 85 | 282 | 4.0 | 12.0 | 0.00 | 0.00 | 0.00 | 34 | 1017.9 |
| 20260901180713 | 85 | 296 | 3.0 | 12.0 | 0.00 | 0.00 | 0.00 | 34 | 1017.8 |
| 20260901180214 | 85 | 267 | 4.0 | 12.0 | 0.00 | 0.00 | 0.00 | 33 | 1017.8 |
| 20260901175706 | 85 | 278 | 6.0 | 13.0 | 0.00 | 0.00 | 0.00 | 33 | 1017.8 |
| 20260901175207 | 86 | 292 | 4.0 | 13.0 | 0.00 | 0.00 | 0.00 | 33 | 1017.8 |
| 20260901174705 | 86 | 278 | 3.0 | 13.0 | 0.00 | 0.00 | 0.00 | 33 | 1017.8 |
| 20260901174205 | 86 | 282 | 7.0 | 13.0 | 0.00 | 0.00 | 0.00 | 33 | 1017.8 |
| 20260901173715 | 87 | 264 | 7.0 | 13.0 | 0.00 | 0.00 | 0.00 | 32 | 1017.8 |
| 20260901173217 | 87 | 291 | 7.0 | 15.0 | 0.00 | 0.00 | 0.00 | 32 | 1017.7 |
| 20260901172713 | 87 | 270 | 5.0 | 16.0 | 0.00 | 0.00 | 0.00 | 32 | 1017.8 |
| 20260901172217 | 88 | 285 | 3.0 | 16.0 | 0.00 | 0.00 | 0.00 | 31 | 1017.7 |
| 20260901171707 | 88 | 281 | 6.0 | 16.0 | 0.00 | 0.00 | 0.00 | 31 | 1017.7 |
| 20260901171206 | 88 | 275 | 5.0 | 13.0 | 0.00 | 0.00 | 0.00 | 32 | 1017.7 |
| 20260901170710 | 88 | 260 | 2.0 | 13.0 | 0.00 | 0.00 | 0.00 | 32 | 1017.7 |
| 20260901170214 | 88 | 284 | 5.0 | 13.0 | 0.00 | 0.00 | 0.00 | 32 | 1017.7 |
| 20260901165213 | 89 | 274 | 5.0 | 14.0 | 0.00 | 0.00 | 0.00 | 32 | 1017.6 |
| 20260901164708 | 89 | 277 | 5.0 | 14.0 | 0.00 | 0.00 | 0.00 | 32 | 1017.7 |
| 20260901164218 | 89 | 274 | 5.0 | 13.0 | 0.00 | 0.00 | 0.00 | 32 | 1017.6 |
| 20260901163705 | 89 | 272 | 6.0 | 13.0 | 0.00 | 0.00 | 0.00 | 32 | 1017.6 |
| 20260901163215 | 90 | 265 | 6.0 | 13.0 | 0.00 | 0.00 | 0.00 | 32 | 1017.6 |
| 20260901162216 | 90 | 317 | 3.0 | 15.0 | 0.00 | 0.00 | 0.00 | 32 | 1017.6 |
| 20260901161718 | 90 | 274 | 6.0 | 15.0 | 0.00 | 0.00 | 0.00 | 32 | 1017.5 |
| 20260901161212 | 90 | 274 | 6.0 | 13.0 | 0.00 | 0.00 | 0.00 | 32 | 1017.5 |
| 20260901160719 | 90 | 298 | 5.0 | 13.0 | 0.00 | 0.00 | 0.00 | 32 | 1017.5 |
| 20260901160217 | 90 | 278 | 4.0 | 13.0 | 0.00 | 0.00 | 0.00 | 32 | 1017.4 |
| 20260901155704 | 90 | 281 | 5.0 | 12.0 | 0.00 | 0.00 | 0.00 | 32 | 1017.4 |
| 20260901155211 | 90 | 275 | 5.0 | 14.0 | 0.00 | 0.00 | 0.00 | 32 | 1017.3 |
| 20260901154706 | 90 | 298 | 3.0 | 14.0 | 0.00 | 0.00 | 0.00 | 32 | 1017.4 |
| 20260901154206 | 90 | 265 | 3.0 | 14.0 | 0.00 | 0.00 | 0.00 | 33 | 1017.4 |
| 20260901153719 | 90 | 274 | 7.0 | 14.0 | 0.00 | 0.00 | 0.00 | 33 | 1017.3 |
| 20260901153213 | 90 | 278 | 5.0 | 14.0 | 0.00 | 0.00 | 0.00 | 33 | 1017.3 |
| 20260901152705 | 90 | 282 | 5.0 | 14.0 | 0.00 | 0.00 | 0.00 | 32 | 1017.3 |
| 20260901152215 | 90 | 288 | 6.0 | 11.0 | 0.00 | 0.00 | 0.00 | 33 | 1017.3 |
| 20260901151713 | 90 | 279 | 2.0 | 13.0 | 0.00 | 0.00 | 0.00 | 33 | 1017.3 |
| 20260901151208 | 90 | 272 | 4.0 | 13.0 | 0.00 | 0.00 | 0.00 | 33 | 1017.3 |
| 20260901150715 | 89 | 278 | 3.0 | 13.0 | 0.00 | 0.00 | 0.00 | 34 | 1017.2 |
| 20260901150217 | 89 | 277 | 6.0 | 11.0 | 0.00 | 0.00 | 0.00 | 34 | 1017.3 |
| 20260901145709 | 89 | 240 | 4.0 | 10.0 | 0.00 | 0.00 | 0.00 | 35 | 1017.5 |
| 20260901144718 | 88 | 350 | 4.0 | 11.0 | 0.00 | 0.00 | 0.00 | 37 | 1017.4 |
| 20260901143727 | 89 | 289 | 3.0 | 11.0 | 0.00 | 0.00 | 0.00 | 36 | 1017.4 |
| 20260901142715 | 89 | 324 | 2.0 | 10.0 | 0.00 | 0.00 | 0.00 | 37 | 1017.5 |
| 20260901142214 | 88 | 5 | 3.0 | 10.0 | 0.00 | 0.00 | 0.00 | 38 | 1017.6 |
| 20260901141711 | 88 | 313 | 3.0 | 10.0 | 0.00 | 0.00 | 0.00 | 38 | 1017.6 |
| 20260901141206 | 87 | 344 | 3.0 | 8.0 | 0.00 | 0.00 | 0.00 | 39 | 1017.6 |
| 20260901140710 | 88 | 343 | 1.0 | 9.0 | 0.00 | 0.00 | 0.00 | 38 | 1017.6 |
| 20260901140213 | 88 | 331 | 3.0 | 10.0 | 0.00 | 0.00 | 0.00 | 39 | 1017.6 |
| 20260901135709 | 88 | 5 | 2.0 | 10.0 | 0.00 | 0.00 | 0.00 | 39 | 1017.6 |
| 20260901135212 | 87 | 338 | 4.0 | 10.0 | 0.00 | 0.00 | 0.00 | 39 | 1017.7 |
| 20260901134210 | 87 | 15 | 1.0 | 14.0 | 0.00 | 0.00 | 0.00 | 39 | 1017.8 |
| 20260901133708 | 87 | 326 | 2.0 | 14.0 | 0.00 | 0.00 | 0.00 | 39 | 1018.2 |
| 20260901132213 | 87 | 288 | 3.0 | 8.0 | 0.00 | 0.00 | 0.00 | 40 | 1018.3 |
| 20260901130711 | 86 | 0 | 0.0 | 7.0 | 0.00 | 0.00 | 0.00 | 40 | 1018.5 |
| 20260901130212 | 86 | 22 | 2.0 | 7.0 | 0.00 | 0.00 | 0.00 | 40 | 1018.6 |
| 20260901125706 | 86 | 239 | 3.0 | 6.0 | 0.00 | 0.00 | 0.00 | 41 | 1018.6 |
| 20260901125207 | 87 | 299 | 1.0 | 6.0 | 0.00 | 0.00 | 0.00 | 40 | 1018.6 |
| 20260901124719 | 87 | 274 | 1.0 | 8.0 | 0.00 | 0.00 | 0.00 | 41 | 1018.7 |
| 20260901124212 | 86 | 309 | 1.0 | 9.0 | 0.00 | 0.00 | 0.00 | 41 | 1018.8 |
| 20260901122217 | 85 | 268 | 2.0 | 9.0 | 0.00 | 0.00 | 0.00 | 42 | 1018.9 |
| 20260901121706 | 85 | 288 | 2.0 | 9.0 | 0.00 | 0.00 | 0.00 | 42 | 1019.1 |
| 20260901121211 | 85 | 286 | 3.0 | 7.0 | 0.00 | 0.00 | 0.00 | 43 | 1019.1 |
| 20260901120713 | 85 | 268 | 2.0 | 7.0 | 0.00 | 0.00 | 0.00 | 43 | 1019.1 |
| 20260901120205 | 84 | 327 | 2.0 | 6.0 | 0.00 | 0.00 | 0.00 | 46 | 1019.1 |
| 20260901115714 | 83 | 340 | 2.0 | 9.0 | 0.00 | 0.00 | 0.00 | 44 | 1019.3 |
| 20260901115212 | 83 | 277 | 0.0 | 9.0 | 0.00 | 0.00 | 0.00 | 45 | 1019.4 |
| 20260901114715 | 83 | 185 | 2.0 | 9.0 | 0.00 | 0.00 | 0.00 | 45 | 1019.4 |
| 20260901114212 | 83 | 187 | 4.0 | 9.0 | 0.00 | 0.00 | 0.00 | 45 | 1019.5 |
| 20260901113709 | 83 | 230 | 4.0 | 9.0 | 0.00 | 0.00 | 0.00 | 45 | 1019.6 |
| 20260901112716 | 83 | 23 | 4.0 | 8.0 | 0.00 | 0.00 | 0.00 | 45 | 1019.7 |
| 20260901112215 | 82 | 323 | 2.0 | 8.0 | 0.00 | 0.00 | 0.00 | 45 | 1019.7 |
| 20260901111718 | 83 | 307 | 2.0 | 8.0 | 0.00 | 0.00 | 0.00 | 45 | 1019.9 |
| 20260901111205 | 83 | 274 | 2.0 | 8.0 | 0.00 | 0.00 | 0.00 | 44 | 1019.8 |
| 20260901110719 | 83 | 267 | 1.0 | 8.0 | 0.00 | 0.00 | 0.00 | 44 | 1019.9 |
| 20260901105710 | 82 | 282 | 3.0 | 6.0 | 0.00 | 0.00 | 0.00 | 45 | 1020.1 |
| 20260901105208 | 81 | 265 | 2.0 | 6.0 | 0.00 | 0.00 | 0.00 | 45 | 1020.1 |
| 20260901104713 | 81 | 291 | 1.0 | 6.0 | 0.00 | 0.00 | 0.00 | 46 | 1020.3 |
| 20260901104218 | 81 | 35 | 1.0 | 6.0 | 0.00 | 0.00 | 0.00 | 49 | 1020.5 |
| 20260901103734 | 80 | 313 | 1.0 | 7.0 | 0.00 | 0.00 | 0.00 | 48 | 1020.5 |
| 20260901103210 | 80 | 355 | 2.0 | 8.0 | 0.00 | 0.00 | 0.00 | 50 | 1020.5 |
| 20260901102710 | 79 | 29 | 1.0 | 8.0 | 0.00 | 0.00 | 0.00 | 49 | 1020.6 |
| 20260901102216 | 79 | 334 | 3.0 | 8.0 | 0.00 | 0.00 | 0.00 | 49 | 1020.6 |
| 20260901101715 | 79 | 345 | 2.0 | 7.0 | 0.00 | 0.00 | 0.00 | 49 | 1020.6 |
| 20260901101217 | 80 | 319 | 2.0 | 8.0 | 0.00 | 0.00 | 0.00 | 48 | 1020.6 |
| 20260901100710 | 80 | 160 | 0.0 | 8.0 | 0.00 | 0.00 | 0.00 | 50 | 1020.7 |
| 20260901095709 | 79 | 18 | 2.0 | 4.0 | 0.00 | 0.00 | 0.00 | 52 | 1020.8 |
| 20260901095215 | 79 | 0 | 0.0 | 6.0 | 0.00 | 0.00 | 0.00 | 51 | 1020.8 |
| 20260901094708 | 79 | 177 | 1.0 | 7.0 | 0.00 | 0.00 | 0.00 | 52 | 1020.9 |
| 20260901094210 | 78 | 172 | 0.0 | 7.0 | 0.00 | 0.00 | 0.00 | 52 | 1020.9 |
| 20260901093210 | 78 | 140 | 1.0 | 5.0 | 0.00 | 0.00 | 0.00 | 52 | 1021.0 |
| 20260901092710 | 78 | 112 | 1.0 | 5.0 | 0.00 | 0.00 | 0.00 | 54 | 1021.0 |
| 20260901092206 | 77 | 47 | 2.0 | 4.0 | 0.00 | 0.00 | 0.00 | 55 | 1021.0 |
| 20260901091714 | 77 | 289 | 0.0 | 4.0 | 0.00 | 0.00 | 0.00 | 55 | 1021.0 |
| 20260901091213 | 77 | 343 | 0.0 | 4.0 | 0.00 | 0.00 | 0.00 | 55 | 1021.0 |
| 20260901090712 | 76 | 11 | 0.0 | 3.0 | 0.00 | 0.00 | 0.00 | 56 | 1021.0 |
| 20260901085707 | 77 | 187 | 0.0 | 3.0 | 0.00 | 0.00 | 0.00 | 56 | 1021.1 |
| 20260901085218 | 76 | 181 | 0.0 | 3.0 | 0.00 | 0.00 | 0.00 | 58 | 1021.1 |
| 20260901084707 | 76 | 67 | 0.0 | 3.0 | 0.00 | 0.00 | 0.00 | 58 | 1021.1 |
| 20260901084208 | 75 | 178 | 0.0 | 3.0 | 0.00 | 0.00 | 0.00 | 59 | 1021.0 |
| 20260901083718 | 75 | 177 | 1.0 | 3.0 | 0.00 | 0.00 | 0.00 | 60 | 1021.1 |
| 20260901083214 | 74 | 185 | 1.0 | 3.0 | 0.00 | 0.00 | 0.00 | 60 | 1021.1 |
| 20260901082710 | 74 | 105 | 1.0 | 3.0 | 0.00 | 0.00 | 0.00 | 61 | 1021.1 |
| 20260901082206 | 74 | 157 | 1.0 | 3.0 | 0.00 | 0.00 | 0.00 | 62 | 1021.1 |
| 20260901081229 | 73 | 0 | 0.0 | 2.0 | 0.00 | 0.00 | 0.00 | 63 | 1021.0 |
| 20260901080715 | 72 | 196 | 0.0 | 0.0 | 0.00 | 0.00 | 0.00 | 64 | 1021.1 |
| 20260901080216 | 72 | 0 | 0.0 | 0.0 | 0.00 | 0.00 | 0.00 | 64 | 1021.2 |
| 20260901075710 | 71 | 0 | 0.0 | 2.0 | 0.00 | 0.00 | 0.00 | 65 | 1021.1 |
| 20260901075208 | 71 | 0 | 0.0 | 2.0 | 0.00 | 0.00 | 0.00 | 66 | 1021.3 |